Notices

What's New in latest Release from April 7th, 2021:

- Updated Glossary, including Speed of Maximum Gust, and Total Hourly Precipitation

- Updated national and regional climate services offices contacts and prices information

- Addition of station inventory lists for 1981-2010, 1971-2000, and 1961-1990 Normals.

If you haven't already, please take our survey and provide feedback about our website: https://eccc.sondage-survey.ca/f/LanguageSelection.aspx?s=442ca660-fcf1-47c0-95a9-59707d6fd709

Hourly Data Report for November 11, 2006

TORONTO CITY
ONTARIO

43°40'00.000" N
79°24'00.000" W
112.50 m
6158355
71508
XTO

Download Data

Hourly Data (November 2006)
Hourly Data Report for November 11, 2006
TIME
LST
Temp Definition
°C
Dew Point Definition
°C
Rel Hum Definition
%
Precip. Amount Definition
mm

Wind Dir Definition
10's deg

Wind Spd Definition
km/h
Visibility Definition
km
Stn Press Definition
kPa
Hmdx Definition


Wind Chill Definition


Weather Definition


00:00 6.4 4.4 87   LegendMM LegendMM   99.69     LegendNANA
01:00 6.8 5.3 90   LegendMM LegendMM   99.60     LegendNANA
02:00 7.2 5.9 91   LegendMM LegendMM   99.46     LegendNANA
03:00 7.5 6.2 91   LegendMM LegendMM   99.39     LegendNANA
04:00 7.3 6.5 95   LegendMM LegendMM   99.31     LegendNANA
05:00 7.2 6.7 97   LegendMM LegendMM   99.25     LegendNANA
06:00 7.3 6.8 97   LegendMM LegendMM   99.24     LegendNANA
07:00 7.7 7.2 97   LegendMM LegendMM   99.37     LegendNANA
08:00 6.5 5.9 96   LegendMM LegendMM   99.43     LegendNANA
09:00 6.1 5.2 94   LegendMM LegendMM   99.56     LegendNANA
10:00 6.2 5.0 92   LegendMM LegendMM   99.57     LegendNANA
11:00 6.2 4.7 90   LegendMM LegendMM   99.58     LegendNANA
12:00 5.9 4.7 92   LegendMM LegendMM   99.65     LegendNANA
13:00 5.8 4.7 93   LegendMM LegendMM   99.65     LegendNANA
14:00 5.8 4.4 91   LegendMM LegendMM   99.73     LegendNANA
15:00 5.5 4.2 91   LegendMM LegendMM   99.69     LegendNANA
16:00 5.2 4.3 94   LegendMM LegendMM   99.94     LegendNANA
17:00 4.6 3.9 95   LegendMM LegendMM   100.00     LegendNANA
18:00 4.5 3.0 90   LegendMM LegendMM   100.24     LegendNANA
19:00 4.1 2.7 91   LegendMM LegendMM   100.25     LegendNANA
20:00 3.8 1.5 85   LegendMM LegendMM   100.36     LegendNANA
21:00 3.8 1.3 84   LegendMM LegendMM   100.52     LegendNANA
22:00 3.4 0.5 81   LegendMM LegendMM   100.54     LegendNANA
23:00 3.4 0.5 81   LegendMM LegendMM   100.59     LegendNANA

Notes on Data Quality.

Legend

  • E = Estimated
  • M = Missing
  • NA = Not Available*
  • [empty] = Indicates an unobserved value
Date modified: